Weather History for Hartsville, SC

Change the Weather History Date:

Monday, November 19, 2012

  Actual Average (KFLO) Record (KFLO)
Temperature  
Mean Temperature 58 °F 54 °F  
Max Temperature 64 °F 66 °F 82 °F (1985)
Min Temperature 50 °F 43 °F 20 °F (2014)
Degree Days  
Heating Degree Days 8 11  
Month to date heating degree days 165  
Since 1 July heating degree days 282  
Cooling Degree Days 0 0  
Month to date cooling degree days 16  
Year to date cooling degree days 2058  
Growing Degree Days 8 (Base 50)    
Moisture  
Dew Point 46 °F    
Average Humidity 69    
Maximum Humidity 77    
Minimum Humidity 59    
Precipitation  
Precipitation 0.00 in 0.09 in 1.08 in (1948)
Month to date precipitation 1.66  
Year to date precipitation 38.89  
Sea Level Pressure  
Sea Level Pressure 30.23 in    
Wind  
Wind Speed 10 mph (NNE)    
Max Wind Speed 14 mph    
Max Gust Speed 22 mph    
Visibility 10 miles    
Events      
T = Trace of Precipitation, MM = Missing Value Source: NWS Daily Summary

Daily Weather History Graph

Daily Weather History Graph

Search for Another Location

Airport:

Trip Planner

Search our weather history database for the weather conditions in past years. The results will help you decide how hot, cold, wet, or windy it might be!

Date:

Astronomy

Nov. 19, 2012 Rise Set
Actual Time 6:58 AM EST 5:13 PM EST
Civil Twilight 6:31 AM EST 5:40 PM EST
Nautical Twilight 6:00 AM EST 6:11 PM EST
Astronomical Twilight 5:30 AM EST 6:41 PM EST
Moon 12:05 PM EST (11/19) 11:32 PM EST (11/19)
Length of Visible Light 11h 09m
Length of Day
10h 15m
Waxing Crescent, 40% of the Moon is Illuminated
Nov 19
Waxing Crescent
Nov 20
First Quarter
Nov 28
Full
Dec 6
Last Quarter
Dec 13
New

Hourly Weather History & Observations

Time (EST) Temp. Dew Point Humidity Pressure Visibility Wind Dir Wind Speed Gust Speed Precip Events Conditions
12:15 AM 53.6 °F 44.6 °F 72% 30.28 in 10.0 mi North 12.7 mph 17.3 mph N/A   Overcast
12:35 AM 53.6 °F 44.6 °F 72% 30.28 in 10.0 mi NNE 11.5 mph 18.4 mph N/A   Overcast
12:55 AM 53.6 °F 44.6 °F 72% 30.27 in 10.0 mi North 6.9 mph 18.4 mph N/A   Overcast
1:15 AM 53.6 °F 44.6 °F 72% 30.27 in 10.0 mi North 9.2 mph 16.1 mph N/A   Overcast
1:35 AM 53.6 °F 44.6 °F 72% 30.26 in 10.0 mi North 10.4 mph 17.3 mph N/A   Overcast
1:55 AM 53.6 °F 44.6 °F 72% 30.26 in 10.0 mi North 11.5 mph 17.3 mph N/A   Overcast
2:15 AM 53.6 °F 44.6 °F 72% 30.26 in 10.0 mi NNE 11.5 mph 21.9 mph N/A   Overcast
2:35 AM 53.6 °F 44.6 °F 72% 30.26 in 10.0 mi NNE 11.5 mph 17.3 mph N/A   Overcast
2:55 AM 53.6 °F 44.6 °F 72% 30.25 in 10.0 mi North 9.2 mph - N/A   Overcast
3:15 AM 53.6 °F 44.6 °F 72% 30.25 in 10.0 mi NNE 13.8 mph 18.4 mph N/A   Overcast
3:35 AM 53.6 °F 44.6 °F 72% 30.24 in 10.0 mi NNE 9.2 mph 19.6 mph N/A   Overcast
3:55 AM 51.8 °F 44.6 °F 76% 30.24 in 10.0 mi North 9.2 mph 19.6 mph N/A   Overcast
4:15 AM 51.8 °F 44.6 °F 76% 30.23 in 10.0 mi North 8.1 mph 19.6 mph N/A   Overcast
4:35 AM 51.8 °F 44.6 °F 76% 30.24 in 10.0 mi North 9.2 mph 17.3 mph N/A   Overcast
4:55 AM 51.8 °F 44.6 °F 76% 30.24 in 10.0 mi NNE 9.2 mph 19.6 mph N/A   Overcast
5:15 AM 51.8 °F 44.6 °F 76% 30.25 in 10.0 mi North 12.7 mph 20.7 mph N/A   Overcast
5:35 AM 51.8 °F 44.6 °F 76% 30.25 in 10.0 mi NNE 13.8 mph 20.7 mph N/A   Overcast
5:55 AM 51.8 °F 44.6 °F 76% 30.25 in 10.0 mi North 9.2 mph 16.1 mph N/A   Overcast
6:15 AM 51.8 °F 44.6 °F 76% 30.25 in 10.0 mi North 8.1 mph 17.3 mph N/A   Overcast
6:35 AM 51.8 °F 44.6 °F 76% 30.25 in 10.0 mi North 10.4 mph 19.6 mph N/A   Overcast
6:55 AM 51.8 °F 44.6 °F 76% 30.25 in 10.0 mi North 9.2 mph 16.1 mph N/A   Overcast
7:15 AM 51.8 °F 44.6 °F 76% 30.26 in 10.0 mi North 6.9 mph - N/A   Overcast
7:35 AM 51.8 °F 44.6 °F 76% 30.26 in 10.0 mi North 9.2 mph 19.6 mph N/A   Overcast
7:55 AM 51.8 °F 44.6 °F 76% 30.27 in 10.0 mi North 10.4 mph 18.4 mph N/A   Overcast
8:35 AM 53.6 °F 44.6 °F 72% 30.27 in 10.0 mi NNE 10.4 mph 20.7 mph N/A   Overcast
8:55 AM 53.6 °F 44.6 °F 72% 30.27 in 10.0 mi North 9.2 mph - N/A   Overcast
9:15 AM 53.6 °F 44.6 °F 72% 30.27 in 10.0 mi North 11.5 mph 17.3 mph N/A   Overcast
9:35 AM 53.6 °F 46.4 °F 77% 30.27 in 10.0 mi NNE 12.7 mph 19.6 mph N/A   Overcast
9:55 AM 55.4 °F 46.4 °F 72% 30.27 in 10.0 mi North 9.2 mph 16.1 mph N/A   Overcast
10:15 AM 55.4 °F 46.4 °F 72% 30.28 in 10.0 mi North 8.1 mph 19.6 mph N/A   Overcast
10:35 AM 55.4 °F 46.4 °F 72% 30.28 in 10.0 mi NNE 9.2 mph - N/A   Overcast
10:55 AM 57.2 °F 46.4 °F 67% 30.27 in 10.0 mi North 10.4 mph 18.4 mph N/A   Overcast
11:15 AM 59.0 °F 48.2 °F 67% 30.26 in 10.0 mi North 6.9 mph - N/A   Overcast
11:35 AM 60.8 °F 48.2 °F 63% 30.25 in 10.0 mi North 6.9 mph 17.3 mph N/A   Overcast
11:55 AM 60.8 °F 48.2 °F 63% 30.24 in 10.0 mi North 6.9 mph - N/A   Overcast
12:15 PM 62.6 °F 48.2 °F 59% 30.23 in 10.0 mi NNE 13.8 mph 19.6 mph N/A   Overcast
12:35 PM 64.4 °F 50.0 °F 59% 30.21 in 10.0 mi NE 8.1 mph 16.1 mph N/A   Scattered Clouds
12:55 PM 64.4 °F 50.0 °F 59% 30.20 in 10.0 mi NNE 10.4 mph 16.1 mph N/A   Scattered Clouds
1:15 PM 64.4 °F 50.0 °F 59% 30.20 in 10.0 mi North 12.7 mph 19.6 mph N/A   Scattered Clouds
1:35 PM 64.4 °F 50.0 °F 59% 30.20 in 10.0 mi NE 13.8 mph - N/A   Scattered Clouds
2:15 PM 62.6 °F 50.0 °F 63% 30.19 in 10.0 mi NNE 13.8 mph 19.6 mph N/A   Overcast
2:35 PM 62.6 °F 50.0 °F 63% 30.19 in 10.0 mi NNE 8.1 mph 17.3 mph N/A   Overcast
2:55 PM 62.6 °F 50.0 °F 63% 30.19 in 10.0 mi NE 9.2 mph - N/A   Overcast
3:15 PM 62.6 °F 50.0 °F 63% 30.19 in 10.0 mi NNE 12.7 mph 18.4 mph N/A   Overcast
3:35 PM 62.6 °F 50.0 °F 63% 30.18 in 10.0 mi North 8.1 mph 16.1 mph N/A   Overcast
3:55 PM 62.6 °F 50.0 °F 63% 30.18 in 10.0 mi North 6.9 mph - N/A   Overcast
4:15 PM 62.6 °F 50.0 °F 63% 30.18 in 10.0 mi North 9.2 mph - N/A   Overcast
4:35 PM 62.6 °F 50.0 °F 63% 30.18 in 10.0 mi North 5.8 mph - N/A   Overcast
4:55 PM 60.8 °F 50.0 °F 68% 30.18 in 10.0 mi North 4.6 mph - N/A   Overcast
5:15 PM 60.8 °F 50.0 °F 68% 30.19 in 10.0 mi NNE 3.5 mph - N/A   Overcast
5:35 PM 60.8 °F 50.0 °F 68% 30.20 in 10.0 mi North 4.6 mph - N/A   Overcast
5:55 PM 60.8 °F 50.0 °F 68% 30.20 in 10.0 mi Calm Calm - N/A   Overcast
6:15 PM 59.0 °F 48.2 °F 67% 30.21 in 10.0 mi Calm Calm - N/A   Overcast
6:35 PM 59.0 °F 48.2 °F 67% 30.21 in 10.0 mi North 5.8 mph - N/A   Overcast
6:55 PM 59.0 °F 46.4 °F 63% 30.21 in 10.0 mi NNE 5.8 mph - N/A   Overcast
7:15 PM 59.0 °F 46.4 °F 63% 30.20 in 10.0 mi NNE 6.9 mph - N/A   Mostly Cloudy
7:35 PM 59.0 °F 46.4 °F 63% 30.21 in 10.0 mi NNE 8.1 mph - N/A   Overcast
7:55 PM 59.0 °F 44.6 °F 59% 30.20 in 10.0 mi NNE 9.2 mph - N/A   Overcast
8:15 PM 57.2 °F 44.6 °F 63% 30.20 in 10.0 mi North 9.2 mph - N/A   Overcast
8:35 PM 55.4 °F 44.6 °F 67% 30.19 in 10.0 mi North 6.9 mph - N/A   Scattered Clouds
8:55 PM 55.4 °F 44.6 °F 67% 30.19 in 10.0 mi NNE 8.1 mph - N/A   Clear
9:15 PM 55.4 °F 44.6 °F 67% 30.19 in 10.0 mi NNE 6.9 mph - N/A   Clear
9:35 PM 53.6 °F 44.6 °F 72% 30.19 in 10.0 mi North 5.8 mph - N/A   Clear
10:15 PM 51.8 °F 42.8 °F 71% 30.17 in 10.0 mi NNE 6.9 mph - N/A   Clear
10:35 PM 51.8 °F 42.8 °F 71% 30.17 in 10.0 mi NNE 6.9 mph - N/A   Clear
10:55 PM 51.8 °F 42.8 °F 71% 30.17 in 10.0 mi North 5.8 mph - N/A   Clear
11:15 PM 51.8 °F 42.8 °F 71% 30.17 in 10.0 mi North 6.9 mph - N/A   Clear
11:35 PM 51.8 °F 42.8 °F 71% 30.16 in 10.0 mi North 4.6 mph - N/A   Clear
11:55 PM 50.0 °F 42.8 °F 76% 30.17 in 10.0 mi North 6.9 mph - N/A   Clear